Location: Sawmill Trailhead
(33.5800°N, 116.4497°W)
Time: 04:21:16
(UTC-07:00)

Amateur Radio Satellites - All Passes

Search period start: 20 October 2014 03:51
Search period end: 21 October 2014 03:51
Location: Sawmill Trailhead, 33.5800°N, 116.4497°W

Satellite Date Start Highest point End Downlink Frequencies (MHz)
Time Altitude Azimuth
AO-Echo 20 Oct 04:00:14 04:04:00 20° 293° (WNW) 04:07:47 ?
Uosat F 20 Oct 04:02:36 04:05:18 14° 93° (E) 04:08:00 435.120 FM
AO-27 20 Oct 04:21:52 04:25:01 16° 295° (WNW) 04:28:10 436.795 MHz FM
OPAL 20 Oct 04:25:31 04:30:06 33° 68° (ENE) 04:34:39 ?
Sapphire 20 Oct 04:51:54 04:57:17 84° 114° (ESE) 05:02:44 437.095 MHz 1200 baud AX-25 AFSK
JAS-2 20 Oct 05:05:20 05:11:17 24° 93° (E) 05:17:14 435.800 - 435.900 CW/SSB, 435.910 FM
Gurwin Techsat 1B 20 Oct 05:07:01 05:09:06 12° 297° (WNW) 05:11:11 435.225 FM
PCSat 20 Oct 05:15:13 05:20:30 55° 298° (WNW) 05:25:49 145.825 MHz
TMSAT-1 20 Oct 05:21:48 05:23:47 12° 297° (WNW) 05:25:46 436.925 FM
Hamsat 20 Oct 05:28:06 05:29:49 12° 93° (E) 05:31:32 145.90 MHz
AO-7 20 Oct 05:29:57 05:38:16 77° 289° (WNW) 05:46:34 29.400 - 29.500 MHz
Uosat F 20 Oct 05:39:26 05:44:19 51° 287° (WNW) 05:49:11 435.120 FM
STRAND 1 20 Oct 06:01:54 06:06:05 26° 69° (ENE) 06:10:16 ?
OPAL 20 Oct 06:04:44 06:08:56 25° 262° (W) 06:13:06 ?
RS-15 20 Oct 06:36:30 06:45:31 27° 42° (NE) 06:54:45 29.354 - 29.394 USB, Beacon 29.352 USB
Sapphire 20 Oct 06:39:03 06:41:23 13° 311° (NW) 06:43:43 437.095 MHz 1200 baud AX-25 AFSK
JAS-2 20 Oct 06:48:57 06:56:33 64° 287° (WNW) 07:04:15 435.800 - 435.900 CW/SSB, 435.910 FM
Hamsat 20 Oct 07:01:58 07:05:54 41° 286° (WNW) 07:09:51 145.90 MHz
SO-67 20 Oct 07:07:29 07:10:05 20° 96° (E) 07:12:40 435.3500 MHz FM
AO-7 20 Oct 07:25:47 07:29:41 14° 307° (NW) 07:33:36 29.400 - 29.500 MHz
STRAND 1 20 Oct 07:40:38 07:45:06 30° 263° (W) 07:49:36 ?
Saudisat 1A 20 Oct 08:04:29 08:08:29 36° 113° (ESE) 08:12:31 436.775 MHz
PANSAT 20 Oct 08:25:20 08:27:07 13° 158° (SSE) 08:28:55 not established
JAS-2 20 Oct 08:38:45 08:40:10 11° 303° (WNW) 08:41:36 435.800 - 435.900 CW/SSB, 435.910 FM
SO-67 20 Oct 08:40:39 08:42:53 16° 289° (WNW) 08:45:06 435.3500 MHz FM
RS-15 20 Oct 08:47:57 08:59:14 85° 244° (WSW) 09:11:02 29.354 - 29.394 USB, Beacon 29.352 USB
Saudisat 1A 20 Oct 09:44:58 09:48:09 19° 309° (NW) 09:51:20 436.775 MHz
HO-68 20 Oct 09:45:42 09:52:55 76° 104° (ESE) 10:00:05 435.675 MHz FM
UKube-1 20 Oct 09:48:51 09:52:41 29° 98° (E) 09:56:29 145.840 MHz, 145.915 MHz
PANSAT 20 Oct 10:03:23 10:06:46 30° 169° (S) 10:10:09 not established
FUNcube-1 20 Oct 10:20:13 10:23:39 23° 96° (E) 10:27:01 145.950 - 145.970 MHz USB
Oscar 11 20 Oct 10:34:35 10:38:53 82° 283° (WNW) 10:43:11 145.825 FM, Beacon 2401.500 USB
MaSat-1 20 Oct 10:41:35 10:44:10 66° 67° (ENE) 10:46:33 437.345 MHz
RS-15 20 Oct 11:03:47 11:10:02 17° 260° (W) 11:16:28 29.354 - 29.394 USB, Beacon 29.352 USB
ZACube-1 20 Oct 11:09:48 11:14:06 80° 283° (WNW) 11:18:17 437.345 MHz
UKube-1 20 Oct 11:25:29 11:28:38 20° 291° (WNW) 11:31:47 145.840 MHz, 145.915 MHz
HO-68 20 Oct 11:35:18 11:39:47 18° 300° (WNW) 11:44:17 435.675 MHz FM
PANSAT 20 Oct 11:43:02 11:46:36 38° 182° (S) 11:50:10 not established
FUNcube-1 20 Oct 11:56:35 11:59:54 22° 290° (WNW) 12:03:09 145.950 - 145.970 MHz USB
Oscar 19 20 Oct 12:13:53 12:15:50 12° 64° (ENE) 12:17:47 437.125 CW, 437.150 USB
KITSAT 1 20 Oct 12:20:04 12:27:39 47° 109° (ESE) 12:35:15 435.175 FM
SO-50 20 Oct 12:39:28 12:41:23 13° 107° (ESE) 12:43:18 436.795 FM
Oscar 16 20 Oct 12:55:42 13:00:20 34° 71° (ENE) 13:04:57 437.025 USB, Beacon 2401.1428
Oscar 10/S400 20 Oct 13:07:17 13:28:26 44° 153° (SSE) 13:48:18 145.825 - 145.975 CW/USB, Beacon 145.810 USB
Uribyol 2 20 Oct 13:07:46 13:11:17 19° 66° (ENE) 13:14:48 436.500 FM
ITAMSAT 1 20 Oct 13:12:26 13:16:02 19° 66° (ENE) 13:19:39 435.822 SSB
ISS 20 Oct 13:19:48 13:22:45 30° 130° (SE) 13:25:42 145.800 FM
PANSAT 20 Oct 13:23:15 13:26:23 24° 195° (SSW) 13:29:31 not established
AO-Echo 20 Oct 13:29:57 13:34:15 34° 71° (ENE) 13:38:41 ?
JAS-1B 20 Oct 13:35:43 13:42:03 66° 74° (ENE) 13:47:45 435.800 - 435.900 CW/SSB
Sapphire 20 Oct 13:44:24 13:49:06 29° 57° (ENE) 13:53:46 437.095 MHz 1200 baud AX-25 AFSK
Oscar 19 20 Oct 13:49:24 13:54:32 69° 258° (WSW) 13:59:41 437.125 CW, 437.150 USB
AO-27 20 Oct 13:55:03 14:00:04 53° 73° (ENE) 14:05:08 436.795 MHz FM
PCSat 20 Oct 14:07:08 14:12:24 50° 61° (ENE) 14:17:38 145.825 MHz
KITSAT 1 20 Oct 14:15:54 14:23:08 35° 307° (NW) 14:30:25 435.175 FM
SO-50 20 Oct 14:17:03 14:21:23 51° 302° (WNW) 14:25:52 436.795 FM
UOSAT-12 20 Oct 14:28:28 14:31:11 16° 108° (ESE) 14:33:56 437.025 FM, 437.400 FM
AO-7 20 Oct 14:35:07 14:40:33 20° 57° (ENE) 14:45:59 29.400 - 29.500 MHz
Oscar 16 20 Oct 14:35:38 14:39:40 23° 264° (W) 14:43:43 437.025 USB, Beacon 2401.1428
Gurwin Techsat 1B 20 Oct 14:41:31 14:46:48 75° 75° (ENE) 14:52:07 435.225 FM
Uribyol 2 20 Oct 14:45:23 14:50:21 45° 260° (W) 14:55:21 436.500 FM
ITAMSAT 1 20 Oct 14:50:14 14:55:09 43° 261° (W) 15:00:06 435.822 SSB
TMSAT-1 20 Oct 14:55:55 15:01:11 75° 75° (ENE) 15:06:29 436.925 FM
ISS 20 Oct 14:56:47 14:59:27 22° 325° (NW) 15:02:08 145.800 FM
AO-Echo 20 Oct 15:09:35 15:13:05 20° 266° (W) 15:16:39 ?
Uosat F 20 Oct 15:12:41 15:15:13 14° 65° (ENE) 15:17:45 435.120 FM
Sapphire 20 Oct 15:27:41 15:32:28 32° 252° (WSW) 15:37:12 437.095 MHz 1200 baud AX-25 AFSK
JAS-1B 20 Oct 15:30:21 15:32:59 13° 265° (W) 15:35:32 435.800 - 435.900 CW/SSB
AO-27 20 Oct 15:36:58 15:39:50 15° 267° (W) 15:42:43 436.795 MHz FM
PCSat 20 Oct 15:51:51 15:55:21 18° 255° (WSW) 15:58:50 145.825 MHz
UOSAT-12 20 Oct 16:06:29 16:10:54 45° 303° (WNW) 16:15:25 437.025 FM, 437.400 FM
AO-7 20 Oct 16:24:05 16:32:22 81° 254° (WSW) 16:40:41 29.400 - 29.500 MHz
Gurwin Techsat 1B 20 Oct 16:26:49 16:27:13 10° 269° (W) 16:27:38 435.225 FM
Saudisat 1A 20 Oct 16:36:45 16:38:12 11° 47° (NE) 16:39:39 436.775 MHz
TMSAT-1 20 Oct 16:41:26 16:41:33 10° 269° (W) 16:41:41 436.925 FM
OPAL 20 Oct 16:42:12 16:43:20 11° 94° (E) 16:44:27 ?
Uosat F 20 Oct 16:48:33 16:53:28 57° 259° (W) 16:58:25 435.120 FM
JAS-2 20 Oct 16:57:34 17:02:40 36° 68° (ENE) 17:08:19 435.800 - 435.900 CW/SSB, 435.910 FM
Hamsat 20 Oct 17:50:44 17:54:58 80° 77° (ENE) 17:59:11 145.90 MHz
Saudisat 1A 20 Oct 18:13:50 18:18:15 73° 243° (WSW) 18:22:37 436.775 MHz
OPAL 20 Oct 18:17:39 18:22:35 65° 287° (WNW) 18:27:27 ?
STRAND 1 20 Oct 18:18:28 18:20:10 12° 92° (E) 18:21:50 ?
AO-7 20 Oct 18:23:20 18:26:05 12° 269° (W) 18:28:51 29.400 - 29.500 MHz
JAS-2 20 Oct 18:43:16 18:47:50 26° 267° (W) 18:52:50 435.800 - 435.900 CW/SSB, 435.910 FM
SO-67 20 Oct 19:08:00 19:11:25 79° 78° (ENE) 19:14:51 435.3500 MHz FM
STRAND 1 20 Oct 19:54:36 19:59:43 65° 286° (WNW) 20:04:47 ?
HO-68 20 Oct 20:10:06 20:16:32 38° 67° (ENE) 20:23:00 435.675 MHz FM
KITSAT 1 20 Oct 20:19:58 20:23:11 13° 38° (NE) 20:26:23 435.175 FM
UKube-1 20 Oct 20:41:31 20:44:12 16° 67° (ENE) 20:46:54 145.840 MHz, 145.915 MHz
RS-15 20 Oct 20:58:59 21:05:55 19° 101° (E) 21:12:45 29.354 - 29.394 USB, Beacon 29.352 USB
FUNcube-1 20 Oct 21:13:46 21:16:06 14° 67° (ENE) 21:18:27 145.950 - 145.970 MHz USB
Oscar 11 20 Oct 21:25:31 21:29:39 45° 74° (ENE) 21:33:47 145.825 FM, Beacon 2401.500 USB
ISS 20 Oct 21:27:49 21:31:09 68° 43° (NE) 21:34:27 145.800 FM
HO-68 20 Oct 21:57:46 22:04:09 35° 262° (W) 22:10:35 435.675 MHz FM
ZACube-1 20 Oct 22:01:44 22:06:11 49° 74° (ENE) 22:10:36 437.345 MHz
KITSAT 1 20 Oct 22:12:26 22:20:24 59° 60° (ENE) 22:28:19 435.175 FM
UKube-1 20 Oct 22:16:05 22:20:04 36° 261° (W) 22:24:05 145.840 MHz, 145.915 MHz
FUNcube-1 20 Oct 22:47:35 22:52:02 48° 261° (W) 22:56:28 145.950 - 145.970 MHz USB
SO-50 20 Oct 22:52:12 22:56:54 47° 58° (ENE) 23:01:35 436.795 FM
Oscar 11 20 Oct 23:04:18 23:06:00 12° 267° (W) 23:07:43 145.825 FM, Beacon 2401.500 USB
RS-15 20 Oct 23:05:43 23:16:49 86° 298° (WNW) 23:27:48 29.354 - 29.394 USB, Beacon 29.352 USB
ZACube-1 20 Oct 23:40:43 23:42:46 13° 267° (W) 23:44:48 437.345 MHz
KITSAT 1 21 Oct 00:08:56 00:15:12 26° 255° (WSW) 00:21:28 435.175 FM
MaSat-1 21 Oct 00:14:34 00:18:52 55° 110° (ESE) 00:22:51 437.345 MHz
SO-50 21 Oct 00:33:59 00:37:04 17° 251° (WSW) 00:40:08 436.795 FM
UOSAT-12 21 Oct 00:39:46 00:44:21 49° 58° (ENE) 00:48:49 437.025 FM, 437.400 FM
Oscar 16 21 Oct 01:12:30 01:15:41 16° 94° (E) 01:18:50 437.025 USB, Beacon 2401.1428
RS-15 21 Oct 01:22:44 01:30:53 23° 322° (NW) 01:39:06 29.354 - 29.394 USB, Beacon 29.352 USB
JAS-1B 21 Oct 01:23:05 01:28:27 24° 98° (E) 01:34:28 435.800 - 435.900 CW/SSB
AO-Echo 21 Oct 01:41:52 01:45:17 17° 93° (E) 01:48:41 ?
MaSat-1 21 Oct 01:53:24 01:54:49 11° 302° (WNW) 01:56:11 437.345 MHz
Oscar 19 21 Oct 02:05:09 02:10:12 59° 101° (E) 02:15:13 437.125 CW, 437.150 USB
AO-27 21 Oct 02:12:43 02:17:05 26° 97° (E) 02:21:24 436.795 MHz FM
UOSAT-12 21 Oct 02:21:33 02:24:00 14° 252° (WSW) 02:26:26 437.025 FM, 437.400 FM
Oscar 16 21 Oct 02:50:19 02:55:12 46° 287° (WNW) 03:00:04 437.025 USB, Beacon 2401.1428
Uribyol 2 21 Oct 03:01:59 03:07:13 90° 119° (ESE) 03:12:25 436.500 FM
Gurwin Techsat 1B 21 Oct 03:02:06 03:07:07 42° 99° (E) 03:12:06 435.225 FM
PCSat 21 Oct 03:06:22 03:07:14 10° 102° (ESE) 03:08:06 145.825 MHz
ITAMSAT 1 21 Oct 03:06:54 03:12:09 86° 284° (WNW) 03:17:22 435.822 SSB
JAS-1B 21 Oct 03:12:41 03:19:03 53° 287° (WNW) 03:26:38 435.800 - 435.900 CW/SSB
TMSAT-1 21 Oct 03:16:07 03:21:08 41° 99° (E) 03:26:06 436.925 FM
AO-Echo 21 Oct 03:19:07 03:24:12 48° 287° (WNW) 03:29:18 ?
